Branson, MO

7:57 AM CST on December 18, 2017 (GMT -0600)
Branson

Weather History for KBBG - September, 2013

Change the Weather History Date:

Monday, September 23, 2013

  Actual Average (KHRO) Record (KHRO)
Temperature  
Mean Temperature 62 °F -  
Max Temperature 75 °F 75 °F 94 °F (1935)
Min Temperature 50 °F 54 °F 35 °F (1953)
Degree Days  
Heating Degree Days 2    
Growing Degree Days 12 (Base 50)    
Moisture  
Dew Point 52 °F    
Average Humidity 78    
Maximum Humidity 100    
Minimum Humidity 47    
Precipitation  
Precipitation 0.00 in - - ()
Sea Level Pressure  
Sea Level Pressure 29.94 in    
Wind  
Wind Speed 2 mph (SE)    
Max Wind Speed 10 mph    
Max Gust Speed -    
Visibility 10 miles    
Events      
Averages and records for this station are not official NWS values.
T = Trace of Precipitation, MM = Missing Value Source: NWS Daily Summary

Daily Weather History Graph

Daily Weather History Graph

Search for Another Location

Airport or City:

Trip Planner

Search our weather history database for the weather conditions in past years. The results will help you decide how hot, cold, wet, or windy it might be!

Date:

Astronomy

Sep. 23, 2013 Rise Set
Actual Time 7:01 AM CDT 7:07 PM CDT
Civil Twilight 6:35 AM CDT 7:33 PM CDT
Nautical Twilight 6:05 AM CDT 8:03 PM CDT
Astronomical Twilight 5:35 AM CDT 8:33 PM CDT
Moon 9:48 PM CDT (9/23) 11:13 AM CDT (9/23)
Length of Visible Light 12h 57m
Length of Day
12h 06m
Waning Gibbous, 81% of the Moon is Illuminated
Sep 23
Waning Gibbous
Sep 26
Last Quarter
Oct 4
New
Oct 11
First Quarter
Oct 18
Full

Hourly Weather History & Observations

Time (CDT) Temp. Dew Point Humidity Pressure Visibility Wind Dir Wind Speed Gust Speed Precip Events Conditions
12:15 AM 55.4 °F 50.0 °F 82% 29.94 in 10.0 mi Calm Calm - N/A   Clear
12:35 AM 55.4 °F 50.0 °F 82% 29.94 in 10.0 mi Calm Calm - N/A   Clear
12:55 AM 55.4 °F 50.0 °F 82% 29.94 in 10.0 mi Calm Calm - N/A   Clear
1:15 AM 55.4 °F 48.2 °F 77% 29.94 in 10.0 mi Calm Calm - N/A   Clear
1:35 AM 53.6 °F 48.2 °F 82% 29.95 in 10.0 mi Calm Calm - N/A   Clear
1:55 AM 53.6 °F 50.0 °F 88% 29.94 in 10.0 mi Calm Calm - N/A   Clear
2:15 AM 53.6 °F 50.0 °F 88% 29.94 in 10.0 mi Calm Calm - N/A   Clear
2:35 AM 53.6 °F 50.0 °F 88% 29.94 in 10.0 mi Calm Calm - N/A   Clear
2:55 AM 53.6 °F 50.0 °F 88% 29.94 in 10.0 mi Calm Calm - N/A   Clear
3:15 AM 53.6 °F 50.0 °F 88% 29.94 in 10.0 mi Calm Calm - N/A   Clear
3:35 AM 53.6 °F 50.0 °F 88% 29.94 in 10.0 mi Calm Calm - N/A   Clear
3:55 AM 53.6 °F 50.0 °F 88% 29.94 in 10.0 mi Calm Calm - N/A   Clear
4:15 AM 51.8 °F 48.2 °F 88% 29.94 in 10.0 mi Calm Calm - N/A   Clear
4:35 AM 50.0 °F 50.0 °F 100% 29.95 in 10.0 mi Calm Calm - N/A   Clear
4:55 AM 50.0 °F 48.2 °F 94% 29.95 in 10.0 mi Calm Calm - N/A   Clear
5:15 AM 50.0 °F 48.2 °F 94% 29.95 in 10.0 mi Calm Calm - N/A   Clear
5:35 AM 50.0 °F 48.2 °F 94% 29.96 in 10.0 mi Calm Calm - N/A   Clear
5:55 AM 50.0 °F 48.2 °F 94% 29.96 in 10.0 mi Calm Calm - N/A   Clear
6:15 AM 50.0 °F 48.2 °F 94% 29.97 in 10.0 mi Calm Calm - N/A   Clear
6:35 AM 50.0 °F 50.0 °F 100% 29.97 in 10.0 mi Calm Calm - N/A   Clear
6:50 AM 50.0 °F 50.0 °F 100% 29.97 in 10.0 mi ESE 4.6 mph - N/A   Clear
7:45 AM 53.6 °F 51.8 °F 94% 29.97 in 10.0 mi ESE 3.5 mph - N/A   Clear
8:45 AM 55.4 °F 53.6 °F 94% 29.97 in 10.0 mi ESE 6.9 mph - N/A   Clear
9:45 AM 60.8 °F 53.6 °F 77% 29.99 in 10.0 mi ESE 4.6 mph - N/A   Clear
10:46 AM 64.4 °F 53.6 °F 68% 29.98 in 10.0 mi SE 8.1 mph - N/A   Clear
11:45 AM 68.0 °F 53.6 °F 60% 29.97 in 10.0 mi SSE 9.2 mph - N/A   Clear
12:45 PM 71.6 °F 53.6 °F 53% 29.95 in 10.0 mi SSE 9.2 mph - N/A   Clear
1:54 PM 73.4 °F 53.6 °F 50% 29.93 in 10.0 mi East 5.8 mph - N/A   Clear
2:45 PM 75.2 °F 53.6 °F 47% 29.90 in 10.0 mi ESE 6.9 mph - N/A   Clear
3:45 PM 75.2 °F 53.6 °F 47% 29.88 in 10.0 mi East 10.4 mph - N/A   Clear
4:45 PM 75.2 °F 55.4 °F 50% 29.88 in 10.0 mi ESE 9.2 mph - N/A   Clear
5:45 PM 75.2 °F 55.4 °F 50% 29.87 in 10.0 mi SE 9.2 mph - N/A   Clear
6:45 PM 71.6 °F 55.4 °F 57% 29.88 in 10.0 mi ESE 8.1 mph - N/A   Clear
7:45 PM 66.2 °F 55.4 °F 68% 29.89 in 10.0 mi ESE 5.8 mph - N/A   Clear
8:45 PM 66.2 °F 55.4 °F 68% 29.92 in 10.0 mi SE 8.1 mph - N/A   Clear
9:15 PM 64.4 °F 55.4 °F 73% 29.91 in 10.0 mi SE 9.2 mph - N/A   Clear
9:35 PM 66.2 °F 55.4 °F 68% 29.92 in 10.0 mi SE 8.1 mph - N/A   Clear
9:55 PM 64.4 °F 55.4 °F 73% 29.93 in 10.0 mi SE 8.1 mph - N/A   Partly Cloudy
10:15 PM 62.6 °F 55.4 °F 77% 29.93 in 10.0 mi SE 5.8 mph - N/A   Clear
10:35 PM 62.6 °F 55.4 °F 77% 29.93 in 10.0 mi ESE 6.9 mph - N/A   Clear
10:55 PM 62.6 °F 55.4 °F 77% 29.93 in 10.0 mi SSE 4.6 mph - N/A   Clear
11:15 PM 62.6 °F 53.6 °F 72% 29.94 in 10.0 mi SSE 4.6 mph - N/A   Clear
11:35 PM 62.6 °F 53.6 °F 72% 29.94 in 10.0 mi SSE 4.6 mph - N/A   Clear
11:55 PM 62.6 °F 53.6 °F 72% 29.95 in 10.0 mi South 4.6 mph - N/A   Clear